Temp
75 75 74 74 73 72 72 72 72 72 72 73 72 72 72 72 72 72 72 72 71 71 71 72 72 72 73 72 72 72 72 72 72 72 72 72 72 72 72 71 71 70 69 69 67 66 65 65 65 64 63 63 62 62 61 61 60 59 58 58 58 58 58 58 58 58 58 58 56
75 75 74 73 73 72 72 72 72 72 72 73 73 73 73 72 72 72 72 72 72 72 72 72 72 72 72 72 72 72 72 72 72 72 72 72 72 72 71 71 70 70 70 69 68 67 66 65 64 64 64 64 64 63 63 63 63 61 59 58 58 58 58 58 58 58 57 55 53
75 75 74 74 73 72 72 72 72 72 72 72 73 73 73 73 73 72 72 72 73 73 73 72 72 72 71 71 71 72 72 72 72 72 71 71 71 71 71 70 70 70 70 69 68 67 66 65 64 64 63 62 62 62 62 63 62 61 60 59 59 58 57 56 55 54 53 52 52
75 75 74 73 73 72 72 72 72 72 72 73 73 73 73 73 73 73 73 73 73 73 72 72 72 72 71 70 70 71 71 71 71 71 71 71 71 71 70 70 70 70 70 70 69 68 67 66 65 64 62 61 61 60 58 57 57 56 55 55 55 55 54 52 52 52 52 52 52
75 74 74 73 73 73 73 73 73 73 73 73 73 73 73 73 73 73 73 73 73 73 72 73 73 72 71 70 70 70 71 71 70 70 71 71 71 70 70 70 70 70 70 70 69 69 68 67 66 64 63 62 60 59 58 56 55 54 53 53 52 52 52 52 52 52 52 52 52
74 74 74 74 73 73 73 73 73 73 73 73 73 73 72 72 72 72 72 72 73 73 72 72 72 71 70 69 69 69 69 70 70 71 71 71 70 70 70 70 70 70 70 69 69 68 68 67 66 64 63 62 62 59 57 55 54 53 52 51 51 51 52 52 52 52 52 52 51
74 74 74 74 74 73 73 73 73 73 73 73 73 72 72 72 73 73 73 73 73 72 71 71 71 70 69 68 67 68 68 68 69 70 70 70 70 70 70 69 70 69 69 69 68 68 68 68 66 64 62 60 58 57 56 55 54 53 52 52 52 52 52 53 52 52 52 52 52
75 75 74 74 74 74 73 73 73 73 73 73 73 73 73 73 73 73 73 73 71 70 70 70 70 69 69 68 67 67 67 68 68 68 68 69 68 68 69 69 68 67 67 67 66 64 63 61 59 58 57 56 55 55 55 55 54 53 53 53 53 53 53 53 53 52 52 52 53
74 74 74 74 73 73 73 73 73 73 73 72 73 73 73 73 73 73 72 71 70 70 70 70 69 69 69 68 67 67 67 67 67 67 67 67 66 66 66 67 66 64 63 63 62 60 59 57 56 55 54 54 54 54 54 55 55 55 54 53 53 53 53 54 54 53 53 52 52
73 73 73 73 73 73 73 73 73 73 73 73 73 73 73 72 72 72 71 70 69 70 70 69 69 68 68 68 67 67 66 66 66 66 66 66 66 66 66 66 65 64 62 61 60 59 58 56 55 55 54 54 54 54 55 56 56 56 55 53 54 54 54 55 54 54 53 52 52
73 73 73 72 72 72 72 72 72 73 73 73 73 73 73 71 71 70 70 70 69 69 69 69 69 68 68 68 68 67 66 65 65 65 65 66 66 66 65 65 64 63 61 60 59 58 57 56 56 55 55 55 56 56 56 56 56 56 55 55 55 55 55 55 55 54 53 52 51
73 73 72 72 72 72 72 72 72 72 72 72 73 73 72 71 71 70 70 70 69 69 69 70 69 69 68 68 67 66 65 65 64 65 65 66 66 65 64 62 61 60 59 58 57 57 57 57 57 56 56 56 57 57 57 57 56 56 56 56 56 55 55 55 54 53 52 52 51
73 72 72 72 72 72 71 71 72 72 72 72 72 72 71 70 70 70 70 69 69 69 69 69 68 68 67 66 66 65 65 66 65 65 64 64 63 62 61 59 58 58 57 57 57 58 58 58 58 58 57 57 58 58 58 57 57 56 56 56 55 54 53 53 53 53 52 52 51
73 72 72 72 71 71 71 71 71 72 72 71 71 71 70 69 69 69 69 69 68 68 68 67 66 65 65 65 65 65 65 66 65 64 63 62 60 59 58 57 57 57 58 58 59 60 60 60 59 59 59 58 59 58 58 58 57 56 56 55 54 53 53 52 52 52 51 51 51
72 72 71 71 71 71 71 71 71 70 70 70 70 70 69 69 69 69 68 68 67 66 65 64 63 62 63 64 64 64 64 64 63 62 60 59 58 58 58 58 58 59 60 60 61 61 61 60 60 60 59 59 58 58 58 58 57 56 55 55 54 53 52 52 52 51 51 50 50
72 71 71 71 71 71 71 70 70 69 69 69 69 69 69 68 68 68 67 66 65 64 63 62 61 62 62 63 63 63 62 61 60 59 58 58 58 58 58 59 59 60 60 61 61 61 60 60 60 59 59 58 58 58 57 57 56 56 55 55 54 53 52 51 51 50 50 50 49
71 71 71 71 71 70 70 69 69 68 68 68 68 69 69 68 67 66 65 65 63 62 62 61 61 61 61 61 61 60 60 59 59 58 58 58 59 59 59 59 59 59 59 59 59 59 59 59 59 59 59 58 58 57 57 57 56 55 54 54 53 51 51 50 50 50 49 49 49
71 71 71 70 70 69 69 69 68 68 68 68 67 67 67 67 66 65 64 63 62 61 61 61 60 60 59 58 58 59 59 59 59 59 59 59 59 59 58 58 57 57 57 57 58 58 58 58 59 59 59 58 57 57 56 56 55 54 54 53 51 50 49 49 49 49 50 50 50
70 70 70 70 69 68 68 68 68 67 67 67 66 66 66 65 64 63 62 61 61 60 59 59 59 58 58 58 58 59 59 60 60 60 60 60 59 59 58 57 57 56 56 56 57 57 58 59 59 59 58 57 56 56 56 55 54 54 53 51 50 49 49 49 49 50 50 51 51
70 69 69 69 68 68 67 67 67 66 66 65 64 64 64 63 63 61 60 59 59 59 58 58 58 58 58 59 60 60 61 61 61 61 60 60 59 59 58 57 56 55 56 56 56 57 58 59 59 58 58 57 56 55 54 54 53 52 51 50 50 49 49 50 50 50 50 51 51
69 69 69 68 67 67 66 66 65 64 63 62 62 62 61 61 60 59 58 58 58 58 58 58 58 59 59 60 61 61 61 61 61 61 60 59 58 57 56 55 53 53 53 53 53 54 56 57 57 57 56 55 54 53 53 53 52 51 51 52 51 50 50 50 50 50 50 50 50
67 67 66 66 65 65 64 63 62 61 60 59 59 59 58 58 57 57 57 57 58 58 58 59 59 60 61 61 61 61 61 61 60 60 59 58 57 55 54 53 50 49 48 48 48 48 49 52 52 51 50 49 50 50 51 51 51 51 51 51 51 50 50 50 50 50 50 50 49
63 63 63 63 63 62 61 60 59 58 57 56 56 56 56 56 56 56 57 58 59 59 60 60 60 60 61 61 60 60 60 60 59 59 58 57 55 54 53 51 48 46 44 45 43 41 42 45 44 43 43 45 47 48 48 50 49 49 48 49 50 50 50 50 50 50 50 50 49
61 61 61 61 61 60 59 58 57 56 56 55 55 55 55 55 56 57 58 59 60 61 61 61 60 60 60 60 60 60 59 58 58 57 57 56 55 53 52 51 48 45 44 45 45 43 42 43 40 40 42 45 47 48 48 48 46 45 46 49 49 49 49 49 50 50 50 50 49
59 59 59 59 58 58 57 56 56 55 55 55 55 55 55 56 57 58 59 60 60 60 60 60 59 59 59 59 59 59 59 58 58 57 56 56 55 54 53 52 50 45 43 48 50 50 50 49 47 47 47 49 49 49 48 46 46 48 49 50 50 50 49 50 50 50 50 49 49
58 58 57 57 56 56 55 55 55 55 55 56 56 56 57 57 58 59 59 58 58 58 58 58 58 58 58 58 58 58 58 58 58 57 56 55 55 54 53 53 51 45 42 49 51 52 52 52 51 51 50 50 49 49 48 46 47 49 50 50 50 49 49 49 49 49 50 50 49
56 56 56 56 55 55 55 55 56 56 56 57 57 58 58 58 59 58 58 57 57 57 57 57 57 57 57 57 57 57 57 57 57 57 56 56 55 53 53 52 51 47 45 48 50 51 51 51 51 51 50 49 49 47 46 47 47 48 49 49 49 49 49 49 49 49 49 50 50
55 55 55 55 55 56 56 56 57 57 57 58 58 58 58 58 58 58 57 57 56 56 56 56 56 56 56 56 56 56 56 56 56 56 56 55 54 53 52 52 51 50 50 50 50 50 50 50 50 50 50 49 49 48 47 47 48 48 48 48 48 48 47 48 48 48 49 49 49
56 56 56 56 56 56 57 57 57 57 58 58 58 58 58 58 57 57 56 56 55 54 54 54 55 55 55 55 55 56 56 56 56 55 55 54 54 53 52 50 49 49 49 50 50 50 49 49 49 49 49 49 49 48 47 47 48 48 48 48 47 47 47 47 47 47 47 48 48
56 56 56 56 56 56 57 57 57 57 58 58 58 58 57 57 56 56 55 55 54 54 54 54 54 55 55 55 55 55 55 55 55 55 54 54 52 51 50 49 49 48 48 49 49 49 49 49 49 49 49 48 48 47 46 46 46 47 47 47 47 47 46 46 46 46 46 46 47
57 57 57 56 56 56 57 57 57 57 57 57 57 57 56 56 55 54 54 54 53 54 54 55 55 55 55 55 55 55 55 54 54 54 53 52 50 49 49 48 48 48 48 49 49 49 49 49 49 48 48 48 47 46 45 45 45 45 45 45 45 46 46 46 45 45 45 46 46
57 57 57 56 56 56 56 57 57 57 57 56 56 55 54 54 53 53 53 53 54 54 54 55 55 54 54 54 54 54 53 53 52 52 51 50 49 49 48 48 47 47 47 48 48 48 48 48 48 48 48 48 47 46 45 44 44 44 44 44 44 44 45 45 45 45 45 45 45
57 57 56 56 56 56 56 56 56 56 56 55 54 54 53 53 52 53 53 54 54 54 54 54 54 54 53 53 53 52 52 52 51 51 50 49 49 48 47 47 47 47 47 48 48 48 48 48 48 48 48 48 47 46 46 45 45 44 43 43 43 43 44 44 44 45 45 45 45
57 56 56 56 55 55 56 56 55 55 54 54 53 53 52 52 52 53 53 54 54 54 54 54 54 53 53 53 52 52 51 51 50 50 49 49 48 47 47 46 47 47 47 47 47 47 47 47 47 47 47 47 47 46 46 45 45 44 43 43 42 42 43 43 44 44 44 44 45
56 56 55 55 55 55 55 55 54 54 53 52 52 52 51 51 52 52 53 53 53 53 53 53 53 53 53 52 52 51 50 50 49 49 48 48 47 46 45 45 45 46 46 47 47 47 47 47 47 47 47 47 46 45 45 45 44 44 43 43 42 42 42 42 43 43 43 43 43
56 55 55 55 54 54 54 54 53 52 52 51 51 50 50 51 51 52 52 53 53 52 52 52 52 52 52 51 51 51 50 49 49 48 48 47 46 45 44 44 44 45 45 46 46 46 46 46 46 46 46 46 45 45 44 44 44 43 43 42 42 42 42 42 42 42 42 42 42
56 55 55 54 54 53 53 53 52 51 51 50 50 50 50 50 51 52 52 52 52 51 51 51 51 51 50 50 50 50 49 49 49 48 47 47 46 45 44 43 43 44 45 45 45 45 46 46 46 46 46 45 45 44 44 44 43 43 42 42 42 42 42 42 42 41 41 41 41
56 55 55 54 53 53 53 52 51 51 50 50 50 50 50 50 51 51 52 52 51 50 50 50 50 50 50 50 49 49 49 49 48 48 47 46 45 44 44 43 43 43 44 44 45 45 45 45 45 46 45 44 44 44 44 43 43 42 42 41 41 41 42 42 42 41 41 40 41
56 55 54 53 53 52 52 51 51 50 50 49 50 50 50 50 50 51 51 51 50 50 49 49 49 49 50 50 49 49 49 48 48 47 47 46 45 45 44 43 42 43 43 44 44 44 44 45 45 45 45 44 44 43 43 42 42 41 41 41 41 41 41 42 42 41 41 40 41
55 55 54 53 53 52 51 51 50 50 49 49 49 50 50 50 50 50 50 50 50 50 49 49 49 49 49 49 49 48 48 48 47 47 47 46 45 45 44 43 43 43 43 44 44 44 44 44 44 45 45 44 44 43 43 42 41 41 40 40 40 40 40 41 41 41 41 40 40
55 54 53 53 52 51 51 50 50 49 49 49 49 49 49 50 50 50 50 50 49 49 49 48 48 49 49 49 48 48 47 47 47 47 47 46 46 45 45 44 43 43 43 44 44 44 44 44 44 44 44 44 43 43 42 41 40 40 39 40 40 40 40 40 40 40 40 40 39
MSLP
1007.86 1008.10 1008.34 1008.50 1008.66 1008.94 1009.14 1009.30 1009.46 1009.58 1009.74 1009.98 1010.18 1010.38 1010.50 1010.70 1010.86 1011.06 1011.22 1011.38 1011.50 1011.66 1011.78 1011.86 1011.94 1012.02 1012.14 1012.30 1012.50 1012.66 1012.78 1012.94 1013.10 1013.26 1013.42 1013.54 1013.70 1013.86 1014.02 1014.22 1014.38 1014.66 1014.86 1015.02 1015.22 1015.42 1015.58 1015.70 1015.86 1016.06 1016.18 1016.34 1016.50 1016.66 1016.78 1016.94 1017.06 1017.18 1017.30 1017.34 1017.38 1017.50 1017.58 1017.66 1017.74 1017.78 1017.82 1017.94 1018.10
1007.74 1007.98 1008.22 1008.42 1008.62 1008.82 1009.06 1009.22 1009.42 1009.54 1009.70 1009.90 1010.06 1010.26 1010.46 1010.62 1010.78 1010.94 1011.14 1011.30 1011.38 1011.50 1011.66 1011.74 1011.82 1011.94 1012.14 1012.34 1012.46 1012.58 1012.74 1012.94 1013.06 1013.22 1013.38 1013.50 1013.66 1013.78 1013.98 1014.22 1014.46 1014.66 1014.82 1014.98 1015.22 1015.42 1015.62 1015.78 1015.94 1016.06 1016.22 1016.34 1016.46 1016.58 1016.66 1016.78 1016.94 1017.06 1017.22 1017.30 1017.38 1017.50 1017.58 1017.66 1017.70 1017.78 1017.94 1018.06 1018.26
1007.66 1007.90 1008.10 1008.34 1008.58 1008.78 1009.02 1009.22 1009.34 1009.54 1009.70 1009.86 1010.02 1010.22 1010.38 1010.54 1010.70 1010.90 1011.06 1011.18 1011.26 1011.38 1011.54 1011.70 1011.82 1012.02 1012.22 1012.38 1012.50 1012.58 1012.74 1012.90 1013.06 1013.22 1013.38 1013.54 1013.70 1013.86 1014.06 1014.22 1014.46 1014.62 1014.78 1014.94 1015.18 1015.34 1015.54 1015.74 1015.94 1016.06 1016.22 1016.38 1016.46 1016.54 1016.66 1016.74 1016.86 1016.98 1017.10 1017.22 1017.38 1017.54 1017.66 1017.78 1017.94 1018.06 1018.14 1018.22 1018.38
1007.58 1007.86 1008.10 1008.30 1008.50 1008.70 1008.94 1009.10 1009.30 1009.46 1009.66 1009.86 1010.02 1010.18 1010.38 1010.50 1010.66 1010.82 1010.98 1011.06 1011.22 1011.34 1011.50 1011.66 1011.78 1011.94 1012.22 1012.38 1012.54 1012.66 1012.78 1012.90 1013.06 1013.22 1013.38 1013.54 1013.70 1013.90 1014.06 1014.22 1014.42 1014.54 1014.66 1014.86 1015.06 1015.26 1015.42 1015.62 1015.78 1015.98 1016.18 1016.38 1016.50 1016.66 1016.82 1017.02 1017.14 1017.22 1017.34 1017.46 1017.62 1017.74 1017.86 1018.06 1018.10 1018.22 1018.30 1018.38 1018.42
1007.54 1007.78 1007.98 1008.22 1008.42 1008.66 1008.82 1008.98 1009.22 1009.42 1009.62 1009.78 1009.98 1010.18 1010.38 1010.50 1010.66 1010.78 1010.94 1011.06 1011.22 1011.34 1011.50 1011.62 1011.74 1011.90 1012.14 1012.38 1012.58 1012.74 1012.82 1012.94 1013.06 1013.22 1013.38 1013.54 1013.70 1013.90 1014.06 1014.18 1014.34 1014.50 1014.66 1014.78 1015.02 1015.18 1015.30 1015.46 1015.70 1015.94 1016.18 1016.38 1016.54 1016.74 1016.94 1017.14 1017.26 1017.38 1017.54 1017.70 1017.86 1017.94 1018.02 1018.10 1018.22 1018.26 1018.30 1018.34 1018.38
1007.46 1007.70 1007.94 1008.18 1008.38 1008.58 1008.78 1008.94 1009.14 1009.34 1009.54 1009.78 1009.94 1010.14 1010.34 1010.50 1010.62 1010.78 1010.90 1011.02 1011.14 1011.30 1011.42 1011.58 1011.74 1011.94 1012.22 1012.46 1012.66 1012.78 1012.90 1013.02 1013.14 1013.22 1013.34 1013.50 1013.70 1013.90 1014.06 1014.22 1014.34 1014.50 1014.66 1014.82 1014.98 1015.14 1015.22 1015.38 1015.66 1015.90 1016.06 1016.30 1016.50 1016.78 1017.06 1017.26 1017.38 1017.50 1017.66 1017.78 1017.94 1018.02 1018.10 1018.14 1018.22 1018.22 1018.22 1018.22 1018.22
1007.42 1007.66 1007.90 1008.10 1008.34 1008.54 1008.74 1008.90 1009.10 1009.30 1009.50 1009.74 1009.94 1010.10 1010.30 1010.42 1010.54 1010.70 1010.82 1010.94 1011.10 1011.30 1011.50 1011.66 1011.86 1012.06 1012.34 1012.58 1012.78 1012.94 1013.02 1013.14 1013.22 1013.34 1013.42 1013.58 1013.74 1013.94 1014.06 1014.26 1014.38 1014.54 1014.70 1014.86 1015.06 1015.14 1015.22 1015.34 1015.62 1015.90 1016.18 1016.46 1016.78 1016.98 1017.18 1017.34 1017.50 1017.58 1017.66 1017.82 1017.98 1018.06 1018.06 1018.06 1018.10 1018.14 1018.14 1018.10 1018.18
1007.34 1007.58 1007.78 1008.06 1008.26 1008.46 1008.66 1008.86 1009.06 1009.30 1009.50 1009.70 1009.90 1010.06 1010.18 1010.38 1010.50 1010.66 1010.78 1010.94 1011.22 1011.42 1011.62 1011.74 1011.94 1012.18 1012.42 1012.66 1012.82 1012.98 1013.14 1013.26 1013.34 1013.50 1013.62 1013.74 1013.90 1014.02 1014.18 1014.38 1014.54 1014.70 1014.90 1015.06 1015.22 1015.38 1015.62 1015.78 1016.02 1016.22 1016.46 1016.70 1016.94 1017.10 1017.26 1017.38 1017.50 1017.62 1017.70 1017.78 1017.90 1018.02 1018.06 1018.06 1018.06 1018.14 1018.14 1018.14 1018.22
1007.34 1007.58 1007.78 1008.02 1008.22 1008.46 1008.66 1008.86 1009.06 1009.26 1009.50 1009.66 1009.78 1009.94 1010.10 1010.30 1010.42 1010.62 1010.82 1011.10 1011.34 1011.50 1011.66 1011.86 1012.06 1012.26 1012.46 1012.66 1012.90 1013.06 1013.22 1013.34 1013.50 1013.66 1013.78 1013.94 1014.06 1014.22 1014.38 1014.50 1014.78 1014.98 1015.22 1015.34 1015.50 1015.66 1015.86 1016.10 1016.34 1016.50 1016.70 1016.90 1017.06 1017.22 1017.34 1017.38 1017.42 1017.50 1017.62 1017.70 1017.78 1017.86 1017.94 1017.94 1018.02 1018.06 1018.14 1018.22 1018.26
1007.30 1007.54 1007.78 1008.06 1008.26 1008.50 1008.66 1008.86 1009.06 1009.22 1009.42 1009.66 1009.78 1009.94 1010.06 1010.22 1010.46 1010.70 1010.94 1011.18 1011.42 1011.62 1011.78 1011.98 1012.18 1012.34 1012.50 1012.70 1012.94 1013.10 1013.30 1013.46 1013.62 1013.78 1013.90 1014.02 1014.18 1014.30 1014.46 1014.66 1014.82 1015.06 1015.34 1015.50 1015.66 1015.86 1016.06 1016.22 1016.42 1016.62 1016.78 1016.94 1017.02 1017.14 1017.22 1017.30 1017.34 1017.38 1017.50 1017.62 1017.66 1017.70 1017.78 1017.86 1017.94 1018.06 1018.14 1018.22 1018.38
1007.30 1007.54 1007.78 1008.06 1008.30 1008.50 1008.66 1008.90 1009.06 1009.22 1009.42 1009.62 1009.74 1009.90 1010.10 1010.38 1010.58 1010.82 1011.06 1011.22 1011.50 1011.66 1011.86 1012.06 1012.22 1012.38 1012.54 1012.70 1012.94 1013.14 1013.34 1013.54 1013.70 1013.82 1013.94 1014.06 1014.18 1014.38 1014.58 1014.78 1014.98 1015.22 1015.46 1015.66 1015.86 1016.06 1016.22 1016.34 1016.46 1016.58 1016.66 1016.78 1016.90 1017.02 1017.10 1017.18 1017.22 1017.34 1017.38 1017.46 1017.54 1017.62 1017.70 1017.82 1017.94 1018.06 1018.22 1018.30 1018.38
1007.34 1007.58 1007.82 1008.06 1008.30 1008.50 1008.66 1008.90 1009.06 1009.26 1009.42 1009.58 1009.74 1009.94 1010.22 1010.50 1010.70 1010.90 1011.10 1011.34 1011.50 1011.70 1011.86 1012.02 1012.18 1012.38 1012.58 1012.74 1012.98 1013.22 1013.42 1013.62 1013.78 1013.86 1013.98 1014.10 1014.26 1014.50 1014.78 1014.98 1015.22 1015.42 1015.66 1015.86 1016.06 1016.14 1016.22 1016.30 1016.38 1016.50 1016.62 1016.70 1016.78 1016.94 1017.06 1017.14 1017.22 1017.26 1017.34 1017.42 1017.50 1017.62 1017.74 1017.86 1017.98 1018.14 1018.30 1018.38 1018.46
1007.34 1007.62 1007.86 1008.06 1008.30 1008.50 1008.74 1008.94 1009.06 1009.26 1009.42 1009.58 1009.78 1010.06 1010.34 1010.58 1010.78 1010.94 1011.18 1011.34 1011.54 1011.70 1011.86 1012.06 1012.30 1012.50 1012.74 1012.94 1013.14 1013.34 1013.46 1013.54 1013.70 1013.90 1014.06 1014.30 1014.54 1014.82 1015.06 1015.26 1015.50 1015.66 1015.82 1015.94 1016.06 1016.10 1016.18 1016.22 1016.30 1016.38 1016.50 1016.66 1016.78 1016.90 1017.02 1017.14 1017.22 1017.30 1017.34 1017.50 1017.62 1017.74 1017.90 1018.02 1018.14 1018.22 1018.30 1018.38 1018.46
1007.38 1007.66 1007.90 1008.10 1008.38 1008.54 1008.74 1008.94 1009.10 1009.30 1009.50 1009.66 1009.94 1010.22 1010.46 1010.66 1010.82 1010.98 1011.22 1011.42 1011.66 1011.82 1012.06 1012.34 1012.58 1012.78 1012.98 1013.10 1013.26 1013.34 1013.46 1013.54 1013.78 1014.02 1014.34 1014.66 1014.90 1015.14 1015.34 1015.50 1015.66 1015.74 1015.82 1015.94 1015.94 1016.02 1016.06 1016.14 1016.22 1016.38 1016.50 1016.66 1016.78 1016.94 1017.06 1017.14 1017.22 1017.34 1017.46 1017.62 1017.70 1017.82 1017.98 1018.10 1018.22 1018.26 1018.38 1018.42 1018.50
1007.46 1007.70 1007.94 1008.18 1008.38 1008.58 1008.74 1008.94 1009.18 1009.38 1009.62 1009.82 1010.06 1010.30 1010.54 1010.78 1010.90 1011.06 1011.34 1011.62 1011.86 1012.10 1012.38 1012.62 1012.86 1013.06 1013.18 1013.26 1013.34 1013.50 1013.66 1013.82 1014.06 1014.30 1014.58 1014.90 1015.10 1015.30 1015.42 1015.54 1015.66 1015.70 1015.78 1015.78 1015.86 1015.94 1016.06 1016.14 1016.26 1016.42 1016.54 1016.70 1016.86 1017.02 1017.14 1017.22 1017.34 1017.46 1017.58 1017.66 1017.78 1017.94 1018.06 1018.18 1018.22 1018.34 1018.42 1018.50 1018.54
1007.54 1007.78 1008.02 1008.22 1008.38 1008.58 1008.78 1009.06 1009.34 1009.54 1009.78 1010.02 1010.18 1010.38 1010.58 1010.82 1011.02 1011.22 1011.50 1011.78 1012.06 1012.34 1012.58 1012.86 1013.06 1013.22 1013.34 1013.42 1013.54 1013.70 1013.94 1014.18 1014.38 1014.58 1014.78 1015.06 1015.22 1015.34 1015.46 1015.54 1015.66 1015.66 1015.74 1015.82 1015.94 1016.06 1016.22 1016.34 1016.38 1016.50 1016.62 1016.78 1016.94 1017.10 1017.22 1017.30 1017.42 1017.54 1017.66 1017.78 1017.90 1018.06 1018.18 1018.26 1018.38 1018.46 1018.54 1018.62 1018.66
1007.62 1007.82 1008.06 1008.22 1008.46 1008.66 1008.94 1009.22 1009.42 1009.66 1009.94 1010.10 1010.26 1010.42 1010.66 1010.94 1011.22 1011.46 1011.70 1011.94 1012.22 1012.54 1012.78 1013.02 1013.22 1013.38 1013.54 1013.66 1013.78 1013.94 1014.14 1014.38 1014.58 1014.78 1014.94 1015.06 1015.26 1015.38 1015.50 1015.66 1015.78 1015.82 1015.86 1015.98 1016.14 1016.30 1016.42 1016.50 1016.50 1016.62 1016.74 1016.86 1017.06 1017.18 1017.30 1017.42 1017.54 1017.66 1017.78 1017.94 1018.10 1018.22 1018.38 1018.50 1018.58 1018.66 1018.66 1018.70 1018.78
1007.66 1007.90 1008.06 1008.30 1008.54 1008.82 1009.06 1009.26 1009.50 1009.74 1009.98 1010.22 1010.38 1010.62 1010.82 1011.14 1011.38 1011.66 1011.90 1012.14 1012.42 1012.70 1012.94 1013.22 1013.38 1013.54 1013.74 1013.90 1014.06 1014.18 1014.34 1014.50 1014.66 1014.82 1015.02 1015.18 1015.34 1015.54 1015.70 1015.82 1015.94 1016.06 1016.10 1016.22 1016.38 1016.46 1016.54 1016.62 1016.66 1016.70 1016.82 1016.98 1017.18 1017.30 1017.42 1017.58 1017.70 1017.82 1017.98 1018.10 1018.30 1018.50 1018.58 1018.66 1018.70 1018.74 1018.78 1018.74 1018.78
1007.70 1007.94 1008.18 1008.42 1008.70 1008.94 1009.14 1009.34 1009.58 1009.82 1010.10 1010.38 1010.62 1010.86 1011.10 1011.34 1011.62 1011.86 1012.14 1012.46 1012.70 1012.94 1013.18 1013.34 1013.58 1013.74 1013.86 1013.98 1014.10 1014.26 1014.42 1014.54 1014.70 1014.90 1015.10 1015.34 1015.50 1015.70 1015.86 1015.98 1016.10 1016.22 1016.38 1016.46 1016.54 1016.62 1016.66 1016.66 1016.78 1016.90 1017.02 1017.22 1017.34 1017.50 1017.62 1017.70 1017.82 1017.98 1018.14 1018.30 1018.50 1018.62 1018.70 1018.74 1018.78 1018.78 1018.82 1018.82 1018.86
1007.78 1008.02 1008.26 1008.50 1008.78 1009.02 1009.22 1009.46 1009.70 1009.98 1010.30 1010.62 1010.90 1011.14 1011.38 1011.66 1011.82 1012.06 1012.42 1012.78 1013.06 1013.22 1013.38 1013.54 1013.70 1013.82 1013.94 1014.02 1014.14 1014.30 1014.50 1014.66 1014.82 1015.06 1015.26 1015.46 1015.66 1015.78 1015.98 1016.14 1016.30 1016.42 1016.54 1016.66 1016.70 1016.70 1016.70 1016.74 1016.86 1017.02 1017.14 1017.34 1017.50 1017.62 1017.74 1017.86 1018.06 1018.18 1018.30 1018.46 1018.58 1018.66 1018.74 1018.78 1018.82 1018.90 1018.94 1018.94 1018.94
1007.82 1008.06 1008.38 1008.66 1008.94 1009.22 1009.46 1009.74 1010.02 1010.30 1010.62 1010.94 1011.22 1011.46 1011.70 1011.94 1012.14 1012.42 1012.74 1013.06 1013.22 1013.34 1013.46 1013.62 1013.70 1013.82 1013.94 1014.06 1014.22 1014.42 1014.66 1014.82 1015.06 1015.22 1015.46 1015.66 1015.82 1016.06 1016.26 1016.46 1016.66 1016.78 1016.86 1016.94 1016.98 1016.98 1016.94 1016.98 1017.06 1017.18 1017.34 1017.50 1017.66 1017.78 1017.94 1018.02 1018.18 1018.26 1018.38 1018.46 1018.66 1018.74 1018.82 1018.90 1018.94 1019.02 1019.06 1019.06 1019.14
1008.10 1008.38 1008.66 1008.94 1009.22 1009.50 1009.78 1010.06 1010.38 1010.70 1011.02 1011.30 1011.54 1011.78 1012.06 1012.30 1012.50 1012.74 1012.98 1013.18 1013.34 1013.42 1013.50 1013.66 1013.74 1013.86 1014.02 1014.22 1014.42 1014.62 1014.82 1015.06 1015.22 1015.46 1015.66 1015.94 1016.18 1016.42 1016.70 1016.90 1017.06 1017.22 1017.30 1017.38 1017.42 1017.38 1017.38 1017.46 1017.54 1017.66 1017.78 1017.86 1017.98 1018.06 1018.18 1018.22 1018.34 1018.42 1018.50 1018.62 1018.74 1018.86 1018.94 1019.02 1019.10 1019.14 1019.18 1019.22 1019.34
1008.50 1008.78 1009.06 1009.30 1009.54 1009.82 1010.10 1010.42 1010.74 1011.06 1011.34 1011.66 1011.86 1012.10 1012.38 1012.54 1012.78 1012.94 1013.10 1013.22 1013.30 1013.38 1013.50 1013.66 1013.86 1014.06 1014.30 1014.50 1014.66 1014.86 1015.06 1015.22 1015.46 1015.70 1015.94 1016.22 1016.50 1016.78 1017.02 1017.22 1017.38 1017.54 1017.66 1017.66 1017.74 1017.78 1017.82 1017.90 1017.98 1018.06 1018.10 1018.18 1018.26 1018.38 1018.46 1018.50 1018.62 1018.70 1018.78 1018.82 1018.94 1019.02 1019.10 1019.18 1019.22 1019.30 1019.30 1019.34 1019.46
1008.86 1009.10 1009.38 1009.66 1009.90 1010.18 1010.46 1010.78 1011.06 1011.34 1011.58 1011.86 1012.06 1012.34 1012.54 1012.70 1012.90 1013.06 1013.18 1013.22 1013.34 1013.46 1013.66 1013.82 1014.10 1014.38 1014.58 1014.78 1014.94 1015.06 1015.22 1015.46 1015.66 1015.94 1016.22 1016.50 1016.74 1016.98 1017.22 1017.38 1017.58 1017.70 1017.82 1017.90 1017.94 1018.02 1018.06 1018.06 1018.18 1018.22 1018.30 1018.38 1018.50 1018.62 1018.66 1018.74 1018.82 1018.90 1018.94 1018.94 1019.02 1019.10 1019.22 1019.26 1019.34 1019.38 1019.46 1019.50 1019.54
1009.22 1009.42 1009.66 1009.94 1010.22 1010.50 1010.78 1011.06 1011.30 1011.50 1011.78 1012.02 1012.22 1012.46 1012.66 1012.82 1012.98 1013.10 1013.22 1013.38 1013.54 1013.74 1013.94 1014.14 1014.42 1014.66 1014.86 1015.02 1015.18 1015.34 1015.46 1015.66 1015.86 1016.14 1016.38 1016.62 1016.90 1017.10 1017.34 1017.50 1017.74 1017.94 1017.98 1017.94 1017.94 1017.94 1018.02 1018.06 1018.18 1018.26 1018.38 1018.50 1018.66 1018.78 1018.90 1018.98 1018.98 1018.94 1018.98 1019.06 1019.10 1019.22 1019.26 1019.34 1019.38 1019.46 1019.50 1019.62 1019.66
1009.46 1009.70 1009.98 1010.22 1010.50 1010.78 1011.02 1011.22 1011.46 1011.66 1011.94 1012.14 1012.38 1012.54 1012.74 1012.94 1013.06 1013.22 1013.38 1013.62 1013.82 1014.02 1014.22 1014.46 1014.66 1014.90 1015.06 1015.22 1015.38 1015.54 1015.70 1015.90 1016.06 1016.26 1016.50 1016.74 1016.94 1017.18 1017.38 1017.66 1017.90 1018.14 1018.22 1018.06 1018.06 1018.06 1018.10 1018.14 1018.22 1018.38 1018.50 1018.66 1018.78 1018.94 1019.06 1019.14 1019.10 1019.10 1019.14 1019.22 1019.30 1019.34 1019.34 1019.38 1019.50 1019.50 1019.54 1019.66 1019.70
1009.70 1009.94 1010.22 1010.46 1010.70 1010.94 1011.18 1011.42 1011.62 1011.82 1012.02 1012.22 1012.38 1012.58 1012.78 1013.02 1013.22 1013.38 1013.62 1013.78 1014.06 1014.26 1014.50 1014.74 1014.94 1015.14 1015.34 1015.50 1015.66 1015.78 1015.94 1016.10 1016.26 1016.42 1016.62 1016.82 1017.06 1017.30 1017.54 1017.78 1018.06 1018.30 1018.38 1018.30 1018.26 1018.30 1018.38 1018.38 1018.50 1018.58 1018.70 1018.82 1018.98 1019.10 1019.22 1019.26 1019.30 1019.34 1019.38 1019.42 1019.50 1019.54 1019.54 1019.58 1019.62 1019.66 1019.66 1019.74 1019.78
1009.90 1010.14 1010.38 1010.62 1010.82 1011.06 1011.30 1011.50 1011.70 1011.90 1012.06 1012.30 1012.50 1012.70 1012.94 1013.14 1013.34 1013.58 1013.78 1014.02 1014.26 1014.50 1014.74 1015.02 1015.22 1015.42 1015.58 1015.78 1015.90 1016.06 1016.18 1016.30 1016.42 1016.58 1016.78 1016.98 1017.18 1017.42 1017.66 1017.94 1018.18 1018.38 1018.50 1018.50 1018.50 1018.54 1018.62 1018.70 1018.78 1018.82 1018.94 1019.06 1019.18 1019.26 1019.34 1019.38 1019.42 1019.50 1019.58 1019.66 1019.74 1019.78 1019.82 1019.86 1019.86 1019.86 1019.86 1019.90 1019.86
1009.98 1010.22 1010.46 1010.70 1010.94 1011.18 1011.38 1011.62 1011.82 1012.06 1012.22 1012.42 1012.66 1012.82 1013.06 1013.30 1013.50 1013.78 1013.98 1014.22 1014.50 1014.74 1015.02 1015.26 1015.50 1015.66 1015.78 1015.94 1016.10 1016.22 1016.34 1016.50 1016.62 1016.78 1016.98 1017.18 1017.38 1017.66 1017.94 1018.22 1018.46 1018.66 1018.74 1018.74 1018.78 1018.78 1018.90 1018.94 1019.02 1019.06 1019.14 1019.22 1019.34 1019.46 1019.50 1019.54 1019.62 1019.66 1019.78 1019.86 1019.94 1020.02 1020.06 1020.10 1020.14 1020.14 1020.10 1020.06 1020.06
1010.10 1010.34 1010.50 1010.78 1011.02 1011.26 1011.50 1011.78 1011.98 1012.22 1012.38 1012.62 1012.82 1013.02 1013.22 1013.50 1013.74 1013.98 1014.22 1014.46 1014.74 1015.02 1015.22 1015.42 1015.62 1015.78 1015.94 1016.06 1016.22 1016.38 1016.50 1016.66 1016.78 1016.98 1017.14 1017.34 1017.62 1017.90 1018.18 1018.46 1018.70 1018.90 1018.98 1018.98 1019.02 1019.06 1019.14 1019.18 1019.22 1019.34 1019.38 1019.46 1019.54 1019.66 1019.78 1019.82 1019.90 1019.94 1020.02 1020.06 1020.18 1020.22 1020.30 1020.34 1020.38 1020.38 1020.38 1020.34 1020.30
1010.22 1010.42 1010.66 1010.90 1011.18 1011.42 1011.66 1011.94 1012.14 1012.38 1012.58 1012.78 1012.98 1013.22 1013.42 1013.74 1014.02 1014.26 1014.50 1014.78 1015.06 1015.26 1015.42 1015.58 1015.70 1015.86 1016.06 1016.22 1016.38 1016.50 1016.66 1016.90 1017.06 1017.30 1017.50 1017.78 1018.02 1018.30 1018.54 1018.78 1018.98 1019.14 1019.22 1019.22 1019.26 1019.34 1019.34 1019.38 1019.50 1019.54 1019.62 1019.70 1019.78 1019.94 1020.02 1020.10 1020.22 1020.26 1020.38 1020.42 1020.46 1020.50 1020.50 1020.54 1020.58 1020.62 1020.58 1020.54 1020.54
1010.30 1010.50 1010.78 1011.06 1011.34 1011.62 1011.86 1012.10 1012.30 1012.50 1012.74 1012.98 1013.22 1013.46 1013.74 1014.02 1014.30 1014.58 1014.82 1015.06 1015.22 1015.42 1015.58 1015.74 1015.86 1016.06 1016.22 1016.42 1016.58 1016.78 1016.94 1017.18 1017.42 1017.66 1017.90 1018.10 1018.34 1018.58 1018.82 1019.06 1019.22 1019.38 1019.46 1019.50 1019.50 1019.54 1019.58 1019.66 1019.70 1019.78 1019.86 1019.94 1020.02 1020.14 1020.26 1020.38 1020.46 1020.58 1020.66 1020.74 1020.78 1020.78 1020.78 1020.78 1020.78 1020.78 1020.74 1020.74 1020.70
1010.46 1010.70 1010.94 1011.22 1011.50 1011.78 1012.02 1012.26 1012.50 1012.70 1012.94 1013.22 1013.50 1013.78 1014.02 1014.30 1014.58 1014.82 1015.06 1015.22 1015.38 1015.54 1015.74 1015.90 1016.06 1016.22 1016.42 1016.66 1016.82 1017.06 1017.26 1017.46 1017.74 1017.94 1018.22 1018.38 1018.62 1018.78 1019.02 1019.26 1019.50 1019.66 1019.70 1019.70 1019.78 1019.78 1019.86 1019.90 1019.94 1020.02 1020.06 1020.10 1020.22 1020.34 1020.46 1020.50 1020.66 1020.78 1020.94 1020.98 1021.06 1021.06 1021.06 1021.02 1020.98 1020.98 1020.94 1020.94 1020.86
1010.62 1010.90 1011.14 1011.38 1011.66 1011.94 1012.22 1012.42 1012.66 1012.94 1013.18 1013.46 1013.78 1014.02 1014.26 1014.50 1014.78 1014.98 1015.22 1015.42 1015.62 1015.78 1015.94 1016.10 1016.30 1016.50 1016.70 1016.90 1017.06 1017.30 1017.50 1017.78 1017.98 1018.22 1018.46 1018.66 1018.86 1019.06 1019.22 1019.50 1019.74 1019.90 1019.98 1019.98 1020.02 1020.06 1020.10 1020.14 1020.22 1020.22 1020.26 1020.30 1020.38 1020.50 1020.62 1020.70 1020.82 1020.94 1021.06 1021.14 1021.22 1021.26 1021.26 1021.22 1021.22 1021.22 1021.22 1021.22 1021.18
1010.78 1011.02 1011.30 1011.54 1011.82 1012.06 1012.38 1012.62 1012.94 1013.18 1013.46 1013.70 1014.06 1014.34 1014.58 1014.78 1014.98 1015.22 1015.42 1015.62 1015.78 1015.98 1016.18 1016.38 1016.54 1016.74 1016.94 1017.18 1017.34 1017.54 1017.78 1018.06 1018.30 1018.54 1018.78 1018.94 1019.14 1019.34 1019.54 1019.78 1020.06 1020.22 1020.22 1020.22 1020.26 1020.34 1020.38 1020.38 1020.38 1020.46 1020.50 1020.50 1020.58 1020.66 1020.78 1020.86 1020.94 1021.06 1021.18 1021.30 1021.34 1021.42 1021.46 1021.50 1021.50 1021.50 1021.54 1021.58 1021.58
1010.94 1011.14 1011.38 1011.70 1011.98 1012.26 1012.54 1012.82 1013.10 1013.42 1013.70 1013.98 1014.30 1014.58 1014.82 1015.02 1015.26 1015.50 1015.66 1015.82 1015.98 1016.18 1016.38 1016.62 1016.78 1016.94 1017.18 1017.42 1017.66 1017.86 1018.06 1018.30 1018.54 1018.78 1019.02 1019.22 1019.38 1019.62 1019.82 1020.06 1020.30 1020.46 1020.50 1020.50 1020.50 1020.54 1020.58 1020.62 1020.62 1020.66 1020.66 1020.74 1020.78 1020.86 1020.94 1021.02 1021.10 1021.22 1021.30 1021.38 1021.46 1021.54 1021.62 1021.70 1021.78 1021.82 1021.90 1021.94 1021.94
1011.06 1011.26 1011.54 1011.82 1012.14 1012.42 1012.74 1013.02 1013.34 1013.66 1013.94 1014.22 1014.50 1014.78 1015.06 1015.26 1015.54 1015.78 1015.94 1016.02 1016.18 1016.38 1016.58 1016.78 1016.98 1017.22 1017.42 1017.66 1017.90 1018.14 1018.38 1018.58 1018.78 1018.98 1019.22 1019.46 1019.66 1019.86 1020.06 1020.34 1020.54 1020.66 1020.74 1020.78 1020.78 1020.78 1020.78 1020.78 1020.78 1020.78 1020.82 1020.90 1020.94 1020.98 1021.06 1021.14 1021.26 1021.34 1021.42 1021.54 1021.62 1021.66 1021.74 1021.82 1021.98 1022.06 1022.18 1022.22 1022.26
1011.30 1011.50 1011.70 1011.98 1012.34 1012.66 1012.94 1013.26 1013.54 1013.86 1014.18 1014.50 1014.78 1015.02 1015.26 1015.50 1015.70 1015.94 1016.14 1016.26 1016.38 1016.58 1016.78 1017.02 1017.22 1017.46 1017.66 1017.90 1018.10 1018.38 1018.62 1018.82 1019.02 1019.22 1019.46 1019.70 1019.94 1020.10 1020.34 1020.50 1020.74 1020.94 1020.98 1021.02 1021.02 1021.02 1021.02 1021.02 1021.02 1020.98 1020.98 1021.06 1021.06 1021.10 1021.18 1021.22 1021.34 1021.46 1021.58 1021.70 1021.78 1021.82 1021.90 1021.94 1022.06 1022.22 1022.38 1022.46 1022.50
1011.50 1011.70 1011.90 1012.18 1012.50 1012.86 1013.18 1013.50 1013.78 1014.10 1014.42 1014.74 1014.98 1015.22 1015.46 1015.66 1015.94 1016.14 1016.38 1016.50 1016.66 1016.82 1017.02 1017.22 1017.46 1017.70 1017.90 1018.06 1018.30 1018.54 1018.82 1019.06 1019.30 1019.50 1019.70 1019.94 1020.18 1020.34 1020.50 1020.70 1020.94 1021.10 1021.22 1021.26 1021.22 1021.22 1021.22 1021.22 1021.18 1021.14 1021.14 1021.18 1021.22 1021.26 1021.34 1021.38 1021.50 1021.58 1021.70 1021.78 1021.94 1021.98 1022.06 1022.10 1022.18 1022.30 1022.46 1022.54 1022.66
1011.70 1011.94 1012.18 1012.42 1012.74 1013.06 1013.38 1013.74 1014.06 1014.38 1014.66 1014.90 1015.14 1015.38 1015.66 1015.90 1016.14 1016.38 1016.54 1016.74 1016.94 1017.06 1017.26 1017.50 1017.70 1017.90 1018.10 1018.30 1018.50 1018.74 1019.02 1019.30 1019.54 1019.74 1019.94 1020.18 1020.38 1020.54 1020.66 1020.86 1021.06 1021.22 1021.34 1021.42 1021.42 1021.42 1021.42 1021.42 1021.38 1021.34 1021.34 1021.34 1021.34 1021.42 1021.50 1021.54 1021.66 1021.74 1021.82 1021.94 1022.02 1022.10 1022.18 1022.22 1022.30 1022.42 1022.54 1022.66 1022.74
1011.94 1012.18 1012.42 1012.70 1013.02 1013.34 1013.66 1013.98 1014.34 1014.66 1014.90 1015.10 1015.34 1015.62 1015.82 1016.06 1016.34 1016.50 1016.74 1016.94 1017.18 1017.34 1017.54 1017.74 1017.94 1018.14 1018.34 1018.54 1018.74 1018.98 1019.22 1019.50 1019.74 1019.94 1020.14 1020.34 1020.50 1020.66 1020.82 1021.02 1021.22 1021.34 1021.50 1021.54 1021.58 1021.62 1021.62 1021.62 1021.58 1021.50 1021.50 1021.50 1021.50 1021.58 1021.66 1021.70 1021.82 1021.94 1022.02 1022.06 1022.18 1022.22 1022.34 1022.38 1022.50 1022.54 1022.66 1022.78 1022.86
Wind_Speed
12 10 9 8 8 7 7 6 6 6 6 6 7 6 6 6 6 6 6 5 5 5 5 5 5 6 7 8 9 10 9 9 9 9 9 9 9 9 8 7 7 6 5 5 5 4 4 3 3 2 2 1 1 1 1 1 1 0 1 1 1 1 2 3 4 4 3 1 0
13 12 10 9 8 7 6 6 6 6 6 6 6 6 6 6 6 6 6 6 5 5 5 4 5 6 7 8 8 8 9 9 9 9 8 8 8 8 7 7 6 7 6 6 6 5 4 4 3 3 2 2 3 3 3 3 3 3 3 3 2 2 2 2 2 1 0 1 2
13 12 11 10 9 8 7 7 7 7 7 6 6 6 6 5 5 5 5 5 5 5 5 4 5 6 7 8 7 7 7 8 8 8 7 7 7 7 7 6 7 7 7 7 7 6 5 5 4 3 3 2 2 2 1 0 0 0 0 0 1 1 1 2 2 2 2 2 1
13 12 11 11 11 11 9 7 8 9 8 7 7 6 6 5 5 5 5 6 6 6 5 5 6 6 7 7 7 6 6 7 7 7 7 7 7 7 7 7 7 7 7 7 7 7 6 6 5 4 3 3 2 2 2 2 3 3 3 4 3 3 3 2 2 2 1 1 1
13 12 11 11 12 11 10 9 10 9 8 7 6 6 6 5 5 5 5 6 5 5 6 6 6 6 7 7 7 7 6 6 6 6 6 7 7 7 7 7 7 6 6 6 6 6 6 6 4 3 3 4 3 3 3 3 3 3 3 3 2 2 2 2 1 1 1 1 1
13 12 12 11 12 11 10 9 10 10 9 7 7 7 7 6 5 5 6 5 6 6 7 7 6 7 7 7 7 6 6 5 5 5 6 6 6 6 6 6 6 6 5 5 5 6 6 6 4 4 3 3 3 4 4 4 3 3 3 2 2 1 1 1 1 2 2 2 2
13 13 13 12 13 11 10 10 10 10 9 8 9 9 8 7 7 7 7 6 6 6 6 6 6 7 7 7 7 6 5 4 4 4 5 5 5 6 6 6 5 5 5 5 5 4 3 3 3 3 4 4 4 4 5 4 3 3 2 2 2 1 2 2 2 1 1 2 2
13 13 13 13 13 12 11 11 10 10 9 8 9 10 10 9 9 8 8 7 7 6 6 6 7 8 8 8 7 6 6 6 5 5 5 5 5 5 5 5 5 5 5 5 5 5 5 5 5 5 5 4 4 4 4 4 4 3 3 3 2 2 2 2 1 1 1 2 3
12 12 12 12 12 12 12 11 11 10 9 9 9 10 10 9 9 9 8 7 7 6 6 6 7 8 8 8 8 7 6 6 6 6 5 6 6 6 6 6 7 7 7 7 8 8 7 6 5 5 4 4 3 3 4 4 4 4 4 3 3 3 2 2 2 1 1 1 2
12 12 12 12 12 12 11 11 11 11 10 10 10 10 9 9 8 8 8 7 7 7 7 7 7 8 8 8 8 7 6 6 6 6 6 6 6 7 6 6 7 7 7 7 7 7 7 5 5 5 5 4 4 5 5 5 5 4 4 3 3 3 3 2 2 1 1 0 1
13 12 12 11 12 12 11 11 10 10 10 9 10 10 9 9 9 8 8 7 7 8 8 8 8 8 8 8 8 7 7 6 5 5 6 6 7 7 7 7 7 7 7 7 6 6 5 5 5 6 6 5 5 5 5 5 5 4 4 3 3 2 2 2 2 1 1 1 1
13 12 12 11 12 12 11 10 9 9 9 9 9 9 9 9 9 9 8 8 8 8 8 8 8 7 7 7 7 7 7 6 6 6 6 6 8 8 8 8 8 8 8 7 5 5 4 5 5 6 6 6 4 4 4 4 4 4 3 3 3 2 2 2 2 2 1 1 1
13 12 12 12 12 12 11 10 9 8 9 9 9 9 9 9 9 9 9 9 8 8 7 8 8 8 7 7 7 6 6 7 7 7 7 8 9 9 9 9 8 8 7 6 5 5 5 5 6 6 6 5 4 4 4 4 4 3 3 4 3 3 3 3 2 1 1 1 1
13 13 12 12 12 12 10 9 8 8 8 9 9 9 9 8 8 8 8 8 8 8 8 9 8 7 7 7 6 6 7 8 9 10 10 10 9 9 8 8 7 7 6 6 6 6 6 6 6 6 6 6 5 5 4 4 4 4 4 4 4 3 3 3 2 1 1 1 1
13 13 13 13 12 11 10 9 8 8 8 9 9 9 8 8 7 7 8 9 9 9 9 8 7 7 7 8 9 9 10 11 11 11 11 10 9 8 7 7 7 6 6 6 6 6 6 6 6 6 6 6 6 5 5 4 4 4 4 4 4 4 3 3 2 2 2 2 2
14 13 13 13 12 11 10 9 8 8 8 8 8 9 8 8 7 8 9 10 9 9 8 8 8 8 8 10 11 11 11 11 11 11 10 9 9 8 8 7 7 7 6 6 6 6 6 6 6 6 7 7 6 6 5 5 5 5 5 5 4 4 4 4 4 3 3 3 3
14 13 13 13 12 11 10 9 8 8 8 9 9 9 9 8 8 8 9 10 9 9 9 9 8 8 9 9 10 10 10 10 10 10 9 9 9 8 8 7 7 6 6 7 7 6 6 5 6 6 7 7 6 6 6 6 6 5 5 6 5 5 5 5 5 4 4 4 4
14 13 13 12 12 11 11 10 10 10 10 10 9 9 9 9 9 9 9 10 10 10 10 10 9 9 9 9 9 9 9 9 9 9 9 9 9 9 8 8 7 7 6 6 6 6 6 6 6 6 7 7 6 6 6 6 6 6 6 6 6 6 5 5 4 4 4 4 4
13 13 13 13 12 12 11 11 11 11 11 11 10 10 10 11 11 11 11 11 11 11 11 11 10 10 10 10 9 9 9 9 10 10 10 10 9 9 9 8 8 7 6 6 6 6 6 7 7 7 7 7 6 6 6 6 6 6 6 7 6 6 5 4 4 4 4 4 4
13 13 13 13 13 12 12 12 12 12 12 11 12 12 12 12 12 13 12 11 11 11 12 11 11 10 10 11 11 10 9 9 10 10 10 10 10 10 9 9 8 7 6 6 5 5 6 7 8 8 8 7 7 6 6 7 7 6 6 6 6 5 5 5 5 5 5 6 6
13 13 13 13 13 13 13 13 13 13 13 13 13 13 13 13 13 13 13 12 11 12 12 12 11 11 11 11 11 11 10 9 10 10 11 11 11 11 10 10 9 8 7 7 6 6 7 8 8 8 8 8 7 7 7 7 7 6 6 7 6 6 6 7 7 6 6 6 7
12 12 13 13 14 14 14 14 14 14 14 13 13 13 13 13 13 13 12 12 12 12 12 12 12 12 12 11 11 11 10 9 10 11 11 11 11 11 11 10 10 9 8 8 8 8 9 10 10 10 9 8 8 8 7 7 7 7 7 8 8 8 8 7 7 7 7 7 7
13 13 13 14 14 14 14 14 14 14 14 13 13 13 13 13 12 12 12 11 12 12 12 12 12 12 12 11 11 11 11 11 12 12 12 12 12 12 11 10 9 8 7 7 6 7 7 9 9 8 8 8 8 8 8 9 8 7 6 7 8 8 8 7 7 7 7 7 8
13 13 12 12 14 14 14 14 14 14 14 13 13 13 13 13 12 12 12 12 13 13 13 12 12 12 12 12 12 12 12 13 13 13 13 13 13 12 11 10 9 7 5 5 6 6 6 6 6 6 6 7 8 8 8 7 5 5 5 6 7 7 7 7 7 7 7 7 7
14 13 13 13 14 14 14 13 13 14 14 13 13 13 13 13 12 12 13 13 14 14 14 13 13 12 11 11 12 12 12 13 13 13 13 13 13 12 11 10 8 6 5 6 9 10 9 8 6 6 7 7 8 8 7 5 5 6 7 7 7 7 7 7 7 7 7 7 7
14 14 14 14 14 14 14 14 14 14 14 14 14 14 13 13 13 13 14 14 14 14 14 13 12 11 11 11 11 12 12 11 12 12 13 13 13 12 11 10 8 6 6 9 13 14 13 13 11 10 8 7 8 7 6 5 6 7 8 8 7 7 7 7 7 7 7 7 7
14 14 14 14 14 14 14 14 14 14 14 14 15 14 14 13 13 13 14 15 14 14 13 12 12 11 11 11 12 12 11 10 11 12 12 13 13 13 12 10 9 7 8 12 15 16 15 15 14 12 10 8 7 6 5 5 7 7 8 8 8 8 8 8 8 8 7 7 6
14 14 15 15 15 15 15 14 15 15 15 15 15 14 14 14 14 14 14 14 14 13 12 11 10 9 9 9 11 12 12 11 11 11 12 13 13 13 12 11 10 10 11 15 16 16 16 15 14 13 11 9 7 6 6 5 6 7 7 7 8 8 8 8 8 7 8 7 7
15 15 15 16 16 15 15 15 15 15 15 15 15 15 15 14 14 14 14 14 13 12 10 9 8 8 8 9 11 11 12 12 11 11 12 13 14 14 13 12 12 12 14 16 16 16 16 15 15 14 12 10 7 6 5 5 6 6 7 7 7 7 8 8 7 7 7 8 7
15 16 16 16 16 16 16 15 15 15 15 14 15 15 15 15 15 14 14 14 13 11 10 8 8 9 10 11 11 11 11 11 12 12 13 14 15 14 14 13 12 12 13 16 16 16 16 16 15 15 14 12 10 7 6 6 6 6 7 7 7 8 8 8 8 8 8 7 7
16 16 16 17 16 16 16 15 15 15 14 14 15 15 15 15 14 14 13 13 12 11 11 11 12 12 12 12 12 12 12 12 13 13 14 15 15 15 14 13 12 12 13 16 16 16 16 16 15 15 14 13 10 8 6 7 7 7 7 7 8 9 9 8 8 8 8 8 7
16 17 17 17 17 16 16 15 15 15 15 16 15 15 15 15 14 14 13 12 13 13 13 13 14 14 14 13 13 13 14 14 14 14 14 15 15 15 14 13 13 13 14 16 16 16 16 16 15 15 14 13 10 9 8 8 8 8 8 9 9 9 9 8 8 8 9 9 8
17 17 17 17 17 16 16 16 16 16 16 16 16 16 15 15 14 14 13 12 13 13 14 14 14 14 14 14 14 14 15 15 15 15 15 15 15 15 14 13 12 13 14 16 16 16 15 15 14 14 13 12 10 9 8 8 7 7 7 8 9 9 10 9 9 9 10 10 9
17 17 17 17 17 16 16 16 16 16 16 16 16 15 15 14 14 14 13 12 12 12 13 13 14 14 14 14 14 14 14 14 14 15 15 15 15 15 14 12 10 12 15 16 16 15 14 14 13 13 12 11 9 8 8 8 8 8 8 8 8 9 9 9 10 11 11 11 10
17 17 17 17 17 16 16 16 16 16 16 16 16 15 14 14 14 13 13 12 13 13 13 13 13 13 14 14 14 15 15 15 15 15 15 15 15 15 15 13 12 13 15 15 15 14 13 13 12 11 10 9 7 7 7 8 8 8 9 9 9 9 9 10 11 11 12 12 12
17 17 17 17 17 17 17 17 17 17 17 16 16 15 14 14 13 13 13 13 14 14 14 14 14 14 14 14 14 14 15 15 16 15 15 15 15 15 15 14 13 14 15 15 14 13 13 12 11 10 9 7 6 5 6 6 7 8 9 9 9 9 10 10 11 12 12 12 12
17 17 18 18 17 17 17 17 17 17 17 16 16 15 15 14 14 13 13 13 14 14 14 14 14 14 14 14 14 14 14 15 15 15 15 15 15 15 15 14 13 14 14 15 14 13 12 11 10 9 7 6 5 5 5 5 6 7 8 8 8 8 9 9 10 11 12 12 13
16 17 18 18 18 17 17 17 17 17 17 16 15 15 14 14 13 13 12 12 13 14 14 14 14 14 15 15 15 15 15 15 15 15 15 15 14 14 14 14 13 13 13 14 14 13 12 11 10 9 7 5 5 5 5 5 5 6 6 7 7 7 7 7 8 9 11 13 15
16 17 17 18 18 18 17 17 17 17 16 16 15 14 14 13 12 12 12 12 13 14 14 14 15 15 15 15 15 15 15 15 15 15 15 14 14 14 14 13 12 12 12 13 13 13 12 11 10 9 8 6 5 5 5 5 6 6 6 6 6 6 6 6 6 7 9 12 15
16 17 17 18 18 18 18 17 17 16 15 15 15 15 14 13 13 13 12 12 13 14 14 14 15 15 14 15 15 15 15 15 15 14 14 14 14 14 14 13 12 12 12 13 13 13 12 12 11 10 8 6 6 5 5 5 6 6 6 5 5 5 5 5 6 6 7 10 12
16 17 17 17 17 17 18 17 16 15 15 15 15 14 13 13 13 13 13 12 13 13 13 13 14 15 14 14 14 14 15 15 14 14 14 14 14 14 13 13 12 12 11 12 12 12 12 12 12 11 9 7 6 5 5 5 6 6 6 6 5 5 5 5 5 6 6 7 8
Wind_Direction
181 180 180 178 173 169 167 168 169 167 165 165 167 170 172 174 171 168 169 172 173 173 174 176 175 171 169 170 173 176 178 182 183 184 186 188 188 188 186 182 177 172 167 160 138 124 116 117 118 120 125 131 148 169 182 170 145 85 313 294 306 286 262 249 249 248 247 236 146
179 179 178 175 170 165 163 166 167 166 165 164 166 168 170 171 168 166 167 170 170 168 167 166 164 159 158 162 168 171 173 176 178 180 183 185 184 181 177 172 173 174 173 168 157 149 144 145 150 162 180 196 202 204 204 204 201 202 206 211 216 217 219 223 237 242 96 85 88
177 177 176 174 169 165 164 166 166 166 165 163 165 166 167 168 166 164 164 167 166 162 157 153 153 149 149 154 161 166 169 172 173 175 176 179 178 177 174 172 177 180 179 173 169 167 165 165 168 173 179 187 197 201 202 230 239 219 198 72 65 69 70 67 54 54 59 72 112
175 175 174 174 169 167 165 165 166 165 164 162 164 164 164 164 164 162 162 164 162 157 151 149 148 146 146 149 154 160 165 167 169 169 170 171 173 175 176 177 181 183 180 174 174 173 173 172 168 164 162 161 154 129 97 73 61 58 55 48 50 58 66 71 69 72 85 131 208
174 174 173 172 169 167 166 165 165 164 163 161 163 163 163 163 162 161 161 163 158 152 147 148 144 140 138 140 145 152 157 160 162 164 166 167 168 171 174 178 180 180 178 174 175 175 173 167 150 142 146 150 147 128 107 96 87 81 74 64 59 60 71 94 115 140 167 198 213
172 172 172 170 168 167 165 164 163 162 161 162 164 164 163 163 163 162 161 160 150 144 141 140 132 126 124 126 133 139 143 146 154 158 160 159 158 162 167 173 175 174 171 169 171 174 172 162 147 140 138 131 122 108 99 93 88 86 85 84 82 85 115 166 177 185 193 209 218
172 172 171 169 168 166 164 163 162 162 162 163 166 167 165 163 164 162 159 150 139 135 134 129 123 120 119 122 126 129 132 133 140 144 144 140 143 150 157 162 163 161 157 155 158 159 155 136 120 109 102 94 90 94 99 101 103 106 111 120 131 165 195 202 198 203 220 236 239
171 170 169 166 166 165 163 162 161 161 162 165 168 168 166 163 162 158 149 134 126 124 125 122 122 122 124 126 127 129 130 132 132 128 124 120 124 129 133 130 118 104 95 94 95 88 77 68 68 71 76 82 86 95 107 120 131 141 151 159 166 181 195 195 191 203 234 256 257
169 167 164 163 164 163 162 161 161 162 163 166 168 168 165 161 156 147 135 121 120 121 122 119 122 124 126 127 127 128 129 131 128 124 121 120 120 120 117 113 104 93 84 80 82 83 82 79 79 82 86 91 100 114 130 145 154 159 162 166 167 172 178 185 178 181 209 254 274
165 162 160 159 161 161 160 161 162 163 164 165 166 164 160 151 142 132 123 118 120 123 123 122 125 127 129 129 128 127 125 123 120 121 125 130 130 126 122 117 112 106 98 91 87 87 89 91 97 103 109 117 130 142 154 165 166 164 160 160 166 168 166 164 157 155 168 289 298
161 159 157 157 159 159 158 159 161 162 162 162 161 156 147 136 128 123 120 121 125 127 129 130 133 135 134 132 127 125 122 119 121 127 133 137 130 124 118 112 107 103 99 95 93 95 101 111 122 128 133 141 149 156 162 168 165 160 153 147 146 146 143 135 123 109 78 6 316
158 156 155 155 156 156 156 157 159 159 159 157 151 142 133 128 126 125 124 127 129 131 132 132 132 129 124 119 118 119 123 128 131 132 129 124 115 109 104 101 99 99 99 102 107 114 125 134 137 139 141 146 153 156 156 158 153 145 134 121 112 101 86 75 76 76 69 10 309
154 153 152 152 152 153 154 156 156 155 152 148 139 131 125 126 128 129 129 129 127 124 120 114 110 107 106 106 112 122 130 133 126 115 103 97 95 94 94 96 99 104 109 117 126 133 138 139 139 138 139 142 141 138 136 139 133 123 112 103 96 87 78 70 69 68 56 333 304
151 149 149 148 150 151 152 152 148 144 139 135 129 125 123 125 127 128 126 122 115 107 100 94 91 93 99 108 113 115 112 107 102 97 93 90 91 93 97 102 110 117 125 132 137 137 136 134 133 131 129 129 123 119 117 120 113 106 100 96 93 90 88 87 86 81 55 351 328
148 147 146 147 149 150 148 144 136 130 128 126 124 123 123 123 124 122 117 109 103 97 93 91 87 88 92 99 98 94 91 89 89 91 93 94 97 102 109 117 123 127 130 131 131 129 126 125 126 124 122 119 115 113 111 107 101 97 96 96 92 86 80 74 69 58 40 17 2
145 145 145 147 149 147 142 135 128 124 123 123 123 123 123 120 118 113 109 105 100 97 96 95 92 89 87 88 89 89 88 89 91 93 97 102 107 113 118 121 123 123 121 120 117 115 113 116 117 117 116 114 112 110 107 101 96 92 88 83 77 70 62 53 47 39 31 21 15
145 145 146 147 145 140 135 130 126 125 124 122 122 120 118 114 110 105 103 102 102 101 101 99 95 92 89 87 89 91 93 95 98 101 105 109 113 114 114 111 109 106 106 106 106 106 106 107 109 109 108 106 104 102 99 95 91 87 82 76 68 60 52 46 41 35 29 24 19
144 144 144 143 138 134 131 128 126 124 122 118 114 111 109 107 103 99 96 96 99 100 100 97 95 94 94 94 94 96 99 103 105 107 109 110 110 109 106 102 97 94 94 96 101 105 107 107 105 102 99 97 94 92 91 90 87 84 80 75 68 61 54 48 44 38 31 27 21
142 142 140 138 134 131 128 125 123 119 115 110 105 103 102 101 99 96 92 90 93 96 98 98 97 97 99 100 101 102 103 105 107 108 109 110 109 106 103 99 95 94 94 98 103 108 110 109 104 101 98 96 93 91 89 86 82 79 77 74 71 67 61 56 50 43 36 31 27
141 140 138 134 130 126 121 117 114 110 106 101 98 98 98 98 97 95 93 92 95 98 100 102 103 103 104 104 104 104 104 104 106 107 107 106 103 99 94 90 86 84 85 87 90 97 103 106 104 103 101 98 93 88 84 82 79 78 78 78 74 69 64 59 54 48 42 38 36
135 133 129 124 120 115 110 106 103 100 97 95 94 94 94 94 94 95 96 99 101 103 104 105 106 106 106 104 104 104 103 102 102 100 97 93 89 84 80 75 69 65 63 61 58 62 71 80 82 83 82 81 78 75 75 78 78 77 76 76 72 67 61 58 55 52 49 48 47
114 113 112 110 108 105 102 98 96 94 93 92 91 91 92 92 94 97 100 103 105 106 106 105 104 103 102 101 102 101 101 99 96 94 90 86 82 79 75 72 68 64 61 59 55 56 60 66 66 66 66 66 64 63 63 66 68 69 69 70 69 66 62 60 58 57 56 57 57
99 99 100 100 100 99 98 96 96 95 94 93 93 94 95 96 98 101 105 108 108 106 104 101 99 97 96 97 98 98 98 96 93 91 89 87 85 82 79 76 73 70 68 69 67 67 69 72 70 68 66 66 64 63 62 63 65 66 68 71 72 70 67 65 63 62 61 63 64
98 98 97 97 97 97 98 98 99 98 98 98 99 99 100 102 104 106 106 106 103 101 99 97 95 94 95 95 96 96 97 97 95 94 93 91 90 87 84 81 77 75 77 84 85 86 86 86 81 77 74 72 70 69 67 65 66 69 72 74 75 74 73 71 68 66 65 65 67
102 100 99 99 99 99 99 101 102 102 103 104 104 104 105 106 107 107 104 101 97 95 94 94 94 94 94 94 95 95 96 97 98 98 99 98 96 94 90 84 79 74 74 85 87 89 90 91 89 85 82 79 77 73 68 59 60 65 69 69 70 72 72 71 69 68 67 68 69
104 103 103 103 102 103 103 104 105 106 107 108 108 108 109 109 108 106 103 99 96 94 93 92 92 92 92 92 92 93 94 95 99 101 102 101 98 94 89 85 78 71 67 74 77 77 78 79 80 81 81 81 79 75 70 62 60 62 64 63 62 62 62 63 62 63 64 66 70
106 106 106 107 107 107 108 109 109 110 110 111 110 110 110 110 108 105 102 99 96 94 92 91 91 90 90 91 92 93 94 96 98 99 99 98 96 93 90 87 82 76 71 72 73 74 74 75 77 79 82 83 79 76 73 70 68 66 63 61 58 55 53 53 52 52 53 55 59
111 111 111 110 110 110 111 111 111 111 111 111 110 110 109 107 105 103 100 98 96 94 91 90 90 91 92 93 94 95 96 96 95 94 94 94 93 92 89 85 81 77 75 75 75 75 75 75 77 78 80 82 80 76 72 70 70 68 64 61 57 54 51 47 45 43 43 43 44
115 114 113 112 112 111 111 111 111 110 110 109 108 108 107 105 103 101 99 97 95 94 93 94 95 97 98 98 98 97 96 95 94 94 93 92 90 88 85 82 79 77 76 76 76 75 75 75 75 75 75 75 74 69 62 60 63 64 63 61 57 55 52 48 43 39 37 36 35
117 115 114 113 112 112 111 111 111 110 109 108 108 107 105 102 100 99 97 96 96 97 99 103 103 103 102 102 100 98 96 94 93 91 90 88 86 84 82 80 79 77 77 76 77 76 76 75 75 74 74 73 72 69 62 57 58 59 59 57 55 54 52 50 45 41 38 34 33
117 116 114 113 112 111 111 111 111 110 109 107 106 103 101 98 97 96 96 97 100 102 104 105 104 103 102 100 98 96 93 91 88 86 85 84 83 83 82 80 79 78 77 78 78 77 76 76 75 75 75 74 73 71 66 62 60 59 57 54 51 50 49 49 45 41 38 36 34
117 116 114 113 112 112 112 111 110 109 107 105 102 100 98 97 97 98 100 102 104 105 105 104 103 102 100 98 96 93 91 89 88 87 87 87 87 86 85 83 80 78 77 77 77 77 76 76 75 75 75 75 76 75 72 69 66 62 59 55 51 48 46 44 43 40 38 36 35
118 116 115 113 113 112 112 111 109 107 105 103 101 100 100 100 101 102 103 104 105 105 104 103 102 101 99 97 95 93 91 90 90 90 90 90 89 88 86 83 79 77 75 75 75 75 74 74 74 74 75 75 76 76 75 75 72 69 64 59 54 49 46 44 42 40 37 35 36
118 116 115 114 113 112 111 109 107 106 104 102 101 101 101 103 104 104 104 104 104 103 102 101 100 99 98 96 95 94 93 91 90 89 89 88 87 86 83 80 76 73 72 73 72 72 71 71 71 72 73 73 74 75 75 76 75 74 71 67 61 56 51 47 44 42 40 37 36
119 117 115 114 113 112 111 109 107 105 104 102 101 101 101 102 103 104 104 104 103 102 100 99 99 98 97 95 95 94 94 93 91 90 88 87 86 84 82 78 75 71 69 69 69 68 68 67 68 69 70 71 73 74 75 76 76 74 73 71 68 63 58 54 50 47 44 41 39
119 118 116 115 114 112 111 110 108 106 105 104 104 103 103 102 103 103 104 105 104 102 101 100 99 98 98 96 95 95 95 95 94 92 90 89 87 85 83 79 75 69 66 66 65 64 63 63 64 66 69 71 73 75 76 76 76 74 73 72 70 68 65 62 58 54 50 46 43
119 118 117 116 114 113 112 111 109 108 106 106 106 106 106 105 105 105 106 106 104 103 102 101 100 99 98 97 96 96 95 95 95 93 92 89 88 86 84 80 75 69 65 63 61 60 58 58 59 61 65 70 72 74 76 77 77 76 74 73 71 70 69 68 65 61 57 52 49
119 118 117 116 115 113 112 111 110 109 109 109 109 109 108 107 107 106 105 105 104 103 102 100 99 99 99 99 98 97 96 95 94 93 92 90 88 87 85 82 77 71 65 61 59 57 55 53 54 56 60 66 68 70 73 75 77 77 77 75 72 71 70 72 71 67 62 57 52
117 117 116 115 114 114 113 112 111 111 111 111 111 110 109 107 107 106 105 103 103 103 102 101 101 101 101 100 99 98 96 94 93 93 92 91 90 89 87 85 80 74 68 62 59 56 53 51 51 53 58 65 67 69 71 72 74 76 76 76 74 71 69 69 71 69 65 59 53
115 115 114 114 114 113 113 112 112 112 112 112 111 110 109 108 107 106 105 103 102 102 101 101 101 101 101 100 99 98 97 96 94 94 94 93 92 90 88 85 81 76 70 64 60 57 54 51 51 52 56 64 67 70 72 73 72 72 72 73 72 70 68 65 66 66 64 59 51
113 113 113 112 112 113 112 112 112 111 111 110 110 110 109 109 109 108 107 105 103 102 101 101 101 100 100 100 100 100 100 99 98 97 96 95 92 89 87 84 81 76 71 66 62 60 57 54 53 53 55 61 65 68 71 73 72 70 69 68 68 68 68 65 63 61 58 55 50